[[{"header":{"parameterUnit":"m.s-1","parameterCategory":1,"la1":30.2991,"la2":30.254,"lo1":-89.0895,"lo2":-89.0444,"dy":0.0017,"dx":0.0017,"nx":28,"ny":28,"refTime":"2024-08-02T21:00:00:Z","depth":0,"parameterNumber":2,"parameterNumberName":"U-component_of_WINDS"},"data":[0,0,0,0,0,0,0,0,0,0,0,0,0,0,0,0,0,0,0,0,0,0,0,0,0,0,0,0,0,0,0,0,0,0,0,0,0,0,0,0,0,0,0,0,0,0,0,0,0,0,0,0,0,0,0,0,0,0,4.7118,4.712,0,4.729,4.7292,4.7294,4.7234,4.723,4.7226,4.7222,4.7403,4.7412,4.742,0,0,0,0,0,0,0,0,0,0,0,0,0,4.6737,4.6744,4.7118,4.712,4.7122,4.729,4.7293,4.7295,4.7234,4.723,4.7225,4.7221,4.7401,4.7411,4.7421,0,0,0,0,0,0,0,0,0,0,0,0,0,4.6905,4.6747,4.7117,4.7112,4.7113,4.729,4.7293,4.7296,4.7235,4.723,4.7224,4.7218,4.7397,4.741,4.7422,4.7615,0,0,4.7461,4.7466,0,0,0,0,0,0,0,0,4.6896,4.692,4.7111,4.7113,4.7114,4.7235,4.7225,4.7403,4.7237,4.7189,4.7222,4.7216,4.7352,4.7368,4.7413,4.7624,4.7632,4.7462,4.7469,4.7475,4.7478,0,0,0,0,0,0,0,4.6884,4.6912,4.7186,4.7113,4.7116,4.7101,4.7119,4.7258,4.7301,4.7193,4.7189,4.721,4.7352,4.7401,4.7417,4.7634,4.7461,4.7473,4.748,4.7485,4.8008,4.8014,0,0,0,0,0,0,4.6871,4.6902,4.7181,4.7191,4.6989,4.7113,4.7133,4.7202,4.7299,4.7309,4.7215,4.7206,4.7383,4.7402,4.7423,4.7653,4.7475,4.7486,4.7494,4.8002,4.8009,4.8016,0,0,0,0,0,0,4.6863,4.6897,4.7174,4.7046,4.708,4.7126,4.7204,4.7208,4.7257,4.7316,4.7323,4.7257,4.7379,4.7406,4.7567,4.7658,4.7492,4.7504,4.7994,4.8004,4.8013,4.8116,0,0,0,0,0,0,4.6853,4.6894,4.6968,4.7048,4.7087,4.7314,4.721,4.7216,4.7279,4.727,4.7357,4.7366,4.7376,4.7548,4.7579,4.7673,4.7513,4.7986,4.7999,4.801,4.8104,4.8128,4.8147,0,0,0,0,0,4.6839,4.6992,4.6972,4.7006,4.718,4.732,4.7342,4.7349,4.7286,4.7361,4.7398,4.7364,4.7644,4.7565,4.76,4.7698,4.7981,4.7995,4.8009,4.8095,4.8123,4.8147,0,0,0,0,0,0,4.6924,4.7002,4.6981,4.7164,4.7235,4.7309,4.7403,4.738,4.7471,4.7459,4.7465,4.7486,4.7651,4.7691,4.7602,4.7889,4.7803,4.7825,4.7856,4.7884,4.7905,4.7891,4.7524,0,0,0,0,0,4.6963,4.7069,4.7133,4.7288,4.7324,4.7358,4.7419,4.7418,4.7493,4.7523,4.7572,4.7647,4.7751,4.782,4.792,4.811,4.8127,4.8195,4.8216,4.8234,4.8252,4.8353,4.8383,4.8063,4.8063,4.8063,0,0,4.7047,4.7102,4.7169,4.7306,4.7361,4.747,4.7384,4.7504,4.7585,4.7542,4.7695,4.7734,4.7818,4.7994,4.8074,4.8032,4.8344,4.8252,4.8265,4.8274,4.837,4.8401,4.8427,4.8073,4.8071,4.8069,0,0,4.7253,4.7307,4.744,4.7497,4.7581,4.7601,4.7633,4.7711,4.7734,4.7888,4.7857,4.7954,4.8135,4.8194,4.8248,4.8475,4.8446,4.8508,4.862,4.8718,4.8743,4.8765,4.8843,4.8872,4.8526,4.8526,4.8527,0,4.7346,4.7509,4.7513,4.7634,4.7694,4.7658,4.7792,4.7848,4.7961,4.8003,4.7955,4.8178,4.8232,4.842,4.8474,4.8521,4.8556,4.8497,4.8739,4.8761,4.8782,4.8857,4.8886,4.8533,4.8532,4.8532,4.8531,0,4.7618,4.7732,4.7829,4.7936,4.8007,4.8135,4.8158,4.823,4.8222,4.8248,4.8404,4.8468,4.8578,4.8623,4.8618,4.8809,4.8781,4.8736,4.8649,4.8819,4.8889,4.8918,4.8543,4.854,4.8538,4.8537,0,0,4.7883,4.7988,4.8024,4.807,4.8159,4.8247,4.8373,4.8478,4.8539,4.8618,4.8722,4.8874,4.8832,4.8894,4.8895,4.8982,4.9153,4.8926,4.8928,4.8964,4.9365,4.9396,4.9429,4.9135,4.9141,4.9145,4.9357,0,4.8095,4.8314,4.8319,4.852,4.8623,4.8589,4.8698,4.8764,4.8791,4.8883,4.8914,4.902,4.8959,4.8995,4.9079,4.9115,4.9234,4.91,4.9231,4.9236,4.9209,4.9466,4.95,4.9697,4.9385,4.9389,4.9393,0,4.8372,4.8456,4.8666,4.8736,4.878,4.8878,4.8973,4.9062,4.9136,4.915,4.9217,4.9205,4.9332,4.9242,4.9417,4.9326,4.938,4.9406,4.9414,4.9425,4.9323,4.9482,4.976,4.9789,4.9436,4.9433,4.943,0,4.854,4.8707,4.8853,4.8894,4.8981,4.905,4.909,4.9158,4.922,4.9304,4.9344,4.9444,4.9497,4.9574,4.9589,4.9522,4.9763,4.9675,4.9777,4.9777,4.9828,4.9824,5.0117,4.9867,4.9867,4.9866,4.9866,0,4.8775,4.8904,4.8929,4.9019,4.9162,4.9167,4.9309,4.9343,4.9404,4.9499,4.9477,4.9568,4.9582,4.9676,4.9689,4.983,4.9856,4.9869,4.9871,4.987,4.9868,4.9904,4.989,4.9874,4.9872,4.9871,4.9869,0,4.8987,4.9009,4.9165,4.9234,4.9254,4.9356,4.9415,4.95,4.9524,4.9645,4.9674,4.9712,4.9821,4.9843,4.9974,4.9982,5.0149,5.0138,5.0123,5.0121,5.022,5.021,5.0545,5.0588,5.0313,5.0315,5.0317,0,4.9134,4.9231,4.9309,4.9371,4.9413,4.9513,4.9575,4.9584,4.965,4.974,4.9814,4.992,5.0005,5.0181,5.022,5.0319,5.0309,5.0419,5.0324,5.0319,5.0307,5.03,5.0308,5.0437,5.044,5.0442,5.0444,0,4.9391,4.9396,4.9487,4.958,4.9655,4.973,4.9801,4.9852,4.9871,4.9946,5.0055,5.0121,5.0252,5.0357,5.0455,5.0496,5.0473,5.0474,5.0502,5.0502,5.0488,5.0493,5.017,5.0466,5.0464,5.0463,5.0461,5.046,4.9573,4.9657,4.9724,4.9825,4.9878,4.9944,5.0027,5.006,5.0151,5.0257,5.0257,5.0376,5.0446,5.0574,5.0621,5.0715,5.068,5.0722,5.0732,5.0741,5.0749,5.0474,5.0733,5.0732,5.0732,5.0731,5.0731,0,4.9827,4.9868,4.996,5.0058,5.0137,5.0107,5.0184,5.0251,5.0356,5.0422,5.0505,5.063,5.0731,5.0777,5.0877,5.0943,5.0934,5.0968,5.0962,5.0972,5.0776,5.074,5.0973,5.0973,5.0973,5.0973,5.0973,5.0973,4.9968,5.0107,5.0121,5.0286,5.0326,5.0441,5.0487,5.0547,5.0599,5.0739,5.0822,5.0851,5.0909,5.1012,5.1103,5.1114,5.115,5.1189,5.1195,5.1011,5.0986,5.0962,5.0928,5.1197,5.1198,5.1382,5.1384,5.1385]},{"header":{"parameterUnit":"m.s-1","parameterCategory":1,"la1":30.2991,"la2":30.254,"lo1":-89.0895,"lo2":-89.0444,"dy":0.0017,"dx":0.0017,"nx":28,"ny":28,"refTime":"2024-08-02T21:00:00:Z","depth":0,"parameterNumber":3,"parameterNumberName":"V-component_of_WINDS"},"data":[0,0,0,0,0,0,0,0,0,0,0,0,0,0,0,0,0,0,0,0,0,0,0,0,0,0,0,0,0,0,0,0,0,0,0,0,0,0,0,0,0,0,0,0,0,0,0,0,0,0,0,0,0,0,0,0,0,0,3.4004,3.4005,0,3.4087,3.4088,3.4089,3.4052,3.405,3.4048,3.4046,3.4128,3.4132,3.4137,0,0,0,0,0,0,0,0,0,0,0,0,0,3.3808,3.3812,3.4004,3.4005,3.4006,3.4087,3.4088,3.4089,3.4052,3.405,3.4047,3.4045,3.4127,3.4132,3.4137,0,0,0,0,0,0,0,0,0,0,0,0,0,3.3892,3.3813,3.4004,3.3997,3.3997,3.4087,3.4088,3.409,3.4053,3.405,3.4046,3.4044,3.4126,3.4132,3.4138,3.4238,0,0,3.4157,3.4159,0,0,0,0,0,0,0,0,3.3888,3.39,3.3997,3.3998,3.3998,3.4056,3.405,3.4139,3.4053,3.4032,3.4046,3.4042,3.4107,3.4114,3.4137,3.4242,3.4245,3.4157,3.4161,3.4163,3.4165,0,0,0,0,0,0,0,3.3882,3.3896,3.4037,3.3998,3.3999,3.3989,3.3997,3.4066,3.4085,3.4033,3.4031,3.4041,3.4106,3.4131,3.4138,3.4246,3.4157,3.4162,3.4166,3.4169,3.4435,3.4438,0,0,0,0,0,0,3.3877,3.3891,3.4034,3.4039,3.3934,3.3995,3.4004,3.4041,3.4085,3.4088,3.4044,3.4039,3.4122,3.4131,3.4141,3.426,3.4163,3.4169,3.4173,3.4432,3.4436,3.444,0,0,0,0,0,0,3.3872,3.389,3.4031,3.3965,3.3982,3.4001,3.4042,3.4044,3.4068,3.4093,3.4095,3.4066,3.412,3.4132,3.4214,3.4262,3.4172,3.4178,3.4428,3.4433,3.4438,3.4499,0,0,0,0,0,0,3.3867,3.3888,3.3928,3.3966,3.3985,3.4103,3.4045,3.4048,3.4079,3.4074,3.4114,3.4117,3.4118,3.4205,3.422,3.4269,3.4183,3.4424,3.443,3.4436,3.4493,3.4506,3.4516,0,0,0,0,0,3.386,3.3942,3.393,3.3947,3.4035,3.4106,3.4117,3.4118,3.4083,3.4122,3.4137,3.4116,3.4254,3.4213,3.423,3.4282,3.442,3.4428,3.4436,3.4487,3.4503,3.4516,0,0,0,0,0,0,3.3908,3.3947,3.3934,3.4031,3.4066,3.41,3.4149,3.4134,3.4179,3.4173,3.417,3.4179,3.4263,3.428,3.4234,3.438,3.4332,3.4343,3.4366,3.4381,3.4392,3.4386,3.4188,0,0,0,0,0,3.393,3.3986,3.4016,3.4098,3.4116,3.413,3.4161,3.4158,3.4194,3.4208,3.4229,3.4264,3.4315,3.4349,3.4397,3.4495,3.4502,3.4539,3.455,3.456,3.457,3.4621,3.4637,3.4464,3.4464,3.4464,0,0,3.3976,3.4004,3.4039,3.4108,3.4135,3.4191,3.4142,3.4205,3.4246,3.4217,3.4295,3.4312,3.435,3.444,3.448,3.4457,3.4619,3.457,3.4577,3.4582,3.463,3.4646,3.4661,3.447,3.4469,3.4468,0,0,3.4088,3.4115,3.4186,3.4213,3.4255,3.4263,3.428,3.4316,3.4326,3.4405,3.4384,3.4432,3.4521,3.4548,3.4574,3.4695,3.4676,3.471,3.4772,3.4822,3.4836,3.4848,3.4889,3.4904,3.472,3.472,3.472,0,3.4139,3.4225,3.4224,3.4287,3.4317,3.4294,3.4365,3.4391,3.4446,3.4467,3.444,3.4549,3.4574,3.4669,3.4698,3.472,3.4738,3.4706,3.4834,3.4846,3.4857,3.4897,3.4913,3.4724,3.4723,3.4723,3.4723,0,3.4285,3.4344,3.4396,3.445,3.4486,3.4552,3.456,3.4596,3.459,3.46,3.4679,3.4707,3.476,3.4783,3.4777,3.4876,3.486,3.4834,3.4786,3.4877,3.4915,3.493,3.4729,3.4728,3.4727,3.4726,0,0,3.443,3.4482,3.4501,3.4524,3.4567,3.4612,3.4677,3.4729,3.476,3.4798,3.4851,3.4926,3.4901,3.493,3.4927,3.4971,3.5062,3.4939,3.4939,3.496,3.5172,3.5191,3.5209,3.505,3.5053,3.5055,3.5168,0,3.4545,3.4659,3.4659,3.4764,3.4818,3.4796,3.4852,3.4883,3.4895,3.4941,3.4952,3.5005,3.4969,3.4986,3.5029,3.5042,3.5105,3.5034,3.5098,3.51,3.5089,3.5228,3.5249,3.5354,3.5183,3.5185,3.5187,0,3.4694,3.4737,3.4847,3.4881,3.4903,3.4954,3.5001,3.5046,3.508,3.5085,3.5117,3.5107,3.517,3.512,3.5207,3.5159,3.5185,3.5196,3.52,3.5205,3.5149,3.5237,3.5388,3.5404,3.521,3.5208,3.5207,0,3.4787,3.4873,3.4949,3.497,3.5012,3.5048,3.5066,3.5098,3.5129,3.5169,3.5189,3.5236,3.5262,3.5298,3.53,3.5264,3.5387,3.5338,3.5392,3.5392,3.5419,3.5417,3.5576,3.5437,3.5437,3.5436,3.5436,0,3.4914,3.4983,3.4992,3.5039,3.5114,3.5113,3.5187,3.5202,3.523,3.5278,3.5262,3.5308,3.5308,3.5354,3.5355,3.5426,3.5438,3.5443,3.5442,3.5444,3.5443,3.5461,3.5453,3.544,3.544,3.5439,3.5438,0,3.5032,3.5041,3.5123,3.5155,3.5165,3.5219,3.5246,3.529,3.5299,3.536,3.5374,3.5388,3.5442,3.5447,3.5509,3.551,3.5595,3.5587,3.5584,3.5582,3.5635,3.563,3.581,3.5833,3.568,3.5682,3.5683,0,3.5112,3.5164,3.5202,3.5233,3.5254,3.5306,3.5337,3.5337,3.537,3.5413,3.5451,3.5503,3.5544,3.5629,3.5644,3.5691,3.5683,3.5743,3.569,3.569,3.5683,3.5679,3.5684,3.5753,3.5755,3.5756,3.5757,0,3.5253,3.5255,3.5301,3.5349,3.5387,3.5425,3.546,3.5486,3.549,3.5528,3.5582,3.5615,3.5677,3.5728,3.5773,3.5791,3.5775,3.5774,3.5789,3.5791,3.5786,3.5788,3.5611,3.577,3.5769,3.5768,3.5767,3.5766,3.5354,3.5398,3.5432,3.5483,3.551,3.5542,3.5585,3.5599,3.5645,3.5697,3.5694,3.5753,3.5784,3.5844,3.5865,3.591,3.589,3.5912,3.5917,3.5922,3.5927,3.578,3.5919,3.5918,3.5918,3.5918,3.5917,0,3.5493,3.5513,3.5561,3.561,3.5651,3.5633,3.567,3.5704,3.5757,3.5788,3.5829,3.5891,3.594,3.5958,3.6005,3.6038,3.6031,3.605,3.6047,3.6051,3.5943,3.5925,3.6055,3.6054,3.6054,3.6054,3.6054,3.6054,3.557,3.5644,3.5649,3.5735,3.5755,3.5814,3.5837,3.5866,3.5891,3.596,3.6001,3.6013,3.6038,3.6087,3.613,3.6134,3.6152,3.6174,3.6174,3.6073,3.6059,3.6046,3.6029,3.6178,3.6178,3.6278,3.6279,3.628]}]]